When you browse on this site, cookies collect data to enhance your experience and personalize the content and advertising you see.
Visit our Privacy Policy to learn more. By continuing to use the site, you agree to this use of cookies and data.
  • In Netherlands
  • List of Countries
  • For 7 days
  • Water Temperature
  • Satellite Maps
  • Weather Map
  • Weather Widgets
  • user-avatar
    Login

    Hourly Weather Sliven

    Today, 17 July, Wednesday

    Time Temperature Precipitation Wind Pressure Humidity
    00:00 +17°C° 0 mm 2 mps 728 mmHg 82%
    01:00 +16°C° 0 mm 2 mps 728 mmHg 81%
    02:00 +16°C° 0 mm 2 mps 728 mmHg 81%
    03:00 +16°C° 0 mm 2 mps 728 mmHg 81%
    04:00 +16°C° 0 mm 2 mps 728 mmHg 80%
    05:00 +15°C° 0 mm 2 mps 728 mmHg 79%
    06:00 +17°C° 0 mm 3 mps 728 mmHg 72%
    07:00 +19°C° 0 mm 3 mps 728 mmHg 66%
    08:00 +21°C° 0 mm 3 mps 729 mmHg 59%
    09:00 +22°C° 0 mm 3 mps 729 mmHg 55%
    10:00 +25°C° 0 mm 3 mps 729 mmHg 51%
    11:00 +26°C° 0 mm 4 mps 729 mmHg 47%
    12:00 +26°C° 0 mm 4 mps 729 mmHg 47%
    13:00 +26°C° 0 mm 4 mps 728 mmHg 47%
    14:00 +27°C° 0 mm 4 mps 728 mmHg 47%
    15:00 +27°C° 0 mm 4 mps 728 mmHg 48%
    16:00 +26°C° 0 mm 4 mps 728 mmHg 49%
    17:00 +26°C° 0 mm 4 mps 728 mmHg 50%
    18:00 +24°C° 0 mm 3 mps 728 mmHg 57%
    19:00 +23°C° 0 mm 2 mps 728 mmHg 63%
    20:00 +21°C° 0 mm 1 mps 728 mmHg 69%
    21:00 +20°C° 0 mm 1 mps 728 mmHg 69%
    22:00 +20°C° 0 mm 1 mps 728 mmHg 69%
    23:00 +19°C° 0 mm 1 mps 728 mmHg 69%

    Tomorrow, 18 July, Thursday

    Time Temperature Precipitation Wind Pressure Humidity
    00:00 +19°C° 0 mm 1 mps 728 mmHg 70%
    01:00 +19°C° 0 mm 1 mps 728 mmHg 70%
    02:00 +18°C° 0 mm 1 mps 728 mmHg 70%
    03:00 +18°C° 0 mm 1 mps 728 mmHg 72%
    04:00 +17°C° 0 mm 2 mps 728 mmHg 74%
    05:00 +16°C° 0 mm 2 mps 728 mmHg 75%
    06:00 +18°C° 0 mm 2 mps 728 mmHg 70%
    07:00 +20°C° 0 mm 2 mps 729 mmHg 65%
    08:00 +23°C° 0 mm 2 mps 729 mmHg 60%
    09:00 +24°C° 0 mm 2 mps 730 mmHg 54%
    10:00 +26°C° 0 mm 2 mps 730 mmHg 49%
    11:00 +28°C° 0 mm 1 mps 730 mmHg 44%
    12:00 +28°C° 0 mm 1 mps 730 mmHg 44%
    13:00 +28°C° 0 mm 1 mps 730 mmHg 45%
    14:00 +28°C° 0 mm 1 mps 730 mmHg 45%
    15:00 +27°C° 0 mm 1 mps 730 mmHg 47%
    16:00 +27°C° 0 mm 1 mps 730 mmHg 49%
    17:00 +27°C° 0 mm 1 mps 730 mmHg 51%
    18:00 +26°C° 0 mm 1 mps 730 mmHg 55%
    19:00 +24°C° 0 mm 1 mps 730 mmHg 59%
    20:00 +23°C° 0 mm 1 mps 730 mmHg 63%
    21:00 +22°C° 0 mm 1 mps 731 mmHg 67%
    22:00 +21°C° 0 mm 1 mps 731 mmHg 71%
    23:00 +20°C° 0 mm 1 mps 731 mmHg 75%

    Day after tomorrow, 19 July, Friday

    Time Temperature Precipitation Wind Pressure Humidity
    00:00 +20°C° 0 mm 1 mps 732 mmHg 77%
    01:00 +19°C° 0 mm 1 mps 732 mmHg 78%
    02:00 +17°C° 0 mm 0 mps 732 mmHg 80%
    03:00 +17°C° 0 mm 0 mps 732 mmHg 80%
    04:00 +16°C° 0 mm 0 mps 732 mmHg 79%
    05:00 +16°C° 0 mm 0 mps 732 mmHg 79%
    06:00 +20°C° 0 mm 1 mps 732 mmHg 73%
    07:00 +22°C° 0 mm 1 mps 733 mmHg 66%
    08:00 +24°C° 0 mm 1 mps 733 mmHg 60%
    09:00 +25°C° 0 mm 1 mps 733 mmHg 55%
    10:00 +27°C° 0 mm 1 mps 733 mmHg 50%
    11:00 +28°C° 0 mm 1 mps 733 mmHg 45%
    12:00 +29°C° 0 mm 1 mps 733 mmHg 43%
    13:00 +29°C° 0 mm 2 mps 733 mmHg 41%
    14:00 +30°C° 0 mm 2 mps 733 mmHg 39%
    15:00 +29°C° 0 mm 2 mps 733 mmHg 39%
    16:00 +29°C° 0 mm 2 mps 733 mmHg 40%
    17:00 +29°C° 0 mm 2 mps 733 mmHg 41%
    18:00 +27°C° 0 mm 2 mps 733 mmHg 49%
    19:00 +24°C° 0 mm 2 mps 733 mmHg 57%
    20:00 +21°C° 0 mm 2 mps 733 mmHg 66%
    21:00 +20°C° 0 mm 2 mps 733 mmHg 68%
    22:00 +20°C° 0 mm 1 mps 734 mmHg 70%
    23:00 +20°C° 0 mm 1 mps 734 mmHg 72%

    20 July, Saturday

    Time Temperature Precipitation Wind Pressure Humidity
    00:00 +19°C° 0 mm 1 mps 734 mmHg 71%
    01:00 +19°C° 0 mm 1 mps 734 mmHg 70%
    02:00 +17°C° 0 mm 0 mps 734 mmHg 69%
    03:00 +17°C° 0 mm 0 mps 733 mmHg 66%
    04:00 +17°C° 0 mm 0 mps 733 mmHg 62%
    05:00 +17°C° 0 mm 0 mps 733 mmHg 59%
    06:00 +19°C° 0 mm 0 mps 734 mmHg 54%
    07:00 +21°C° 0 mm 0 mps 734 mmHg 50%
    08:00 +23°C° 0 mm 0 mps 734 mmHg 45%
    09:00 +26°C° 0 mm 1 mps 734 mmHg 42%
    10:00 +28°C° 0 mm 1 mps 735 mmHg 39%
    11:00 +29°C° 0 mm 2 mps 735 mmHg 36%
    12:00 +30°C° 0 mm 2 mps 735 mmHg 36%
    13:00 +30°C° 0 mm 2 mps 735 mmHg 35%
    14:00 +31°C° 0 mm 2 mps 735 mmHg 34%
    15:00 +30°C° 0 mm 2 mps 734 mmHg 36%
    16:00 +30°C° 0 mm 3 mps 734 mmHg 39%
    17:00 +30°C° 0 mm 3 mps 734 mmHg 41%
    18:00 +27°C° 0 mm 2 mps 734 mmHg 47%
    19:00 +25°C° 0 mm 2 mps 734 mmHg 53%
    20:00 +22°C° 0 mm 1 mps 734 mmHg 59%
    21:00 +22°C° 0 mm 1 mps 734 mmHg 60%
    22:00 +21°C° 0 mm 1 mps 735 mmHg 61%
    23:00 +20°C° 0 mm 1 mps 735 mmHg 62%

    21 July, Sunday

    Time Temperature Precipitation Wind Pressure Humidity
    00:00 +20°C° 0 mm 1 mps 735 mmHg 62%
    01:00 +18°C° 0 mm 0 mps 735 mmHg 62%
    02:00 +18°C° 0 mm 0 mps 734 mmHg 62%
    03:00 +18°C° 0 mm 0 mps 734 mmHg 62%
    04:00 +18°C° 0 mm 0 mps 734 mmHg 63%
    05:00 +18°C° 0 mm 0 mps 734 mmHg 63%
    06:00 +20°C° 0 mm 0 mps 734 mmHg 59%
    07:00 +22°C° 0 mm 0 mps 735 mmHg 54%
    08:00 +24°C° 0 mm 0 mps 735 mmHg 50%
    09:00 +27°C° 0 mm 1 mps 735 mmHg 46%
    10:00 +29°C° 0 mm 1 mps 735 mmHg 42%
    11:00 +30°C° 0 mm 1 mps 735 mmHg 38%
    12:00 +31°C° 0 mm 1 mps 735 mmHg 37%
    13:00 +31°C° 0 mm 2 mps 735 mmHg 35%
    14:00 +32°C° 0 mm 2 mps 735 mmHg 33%
    15:00 +32°C° 0 mm 2 mps 735 mmHg 35%
    16:00 +33°C° 0 mm 3 mps 735 mmHg 36%
    17:00 +33°C° 0 mm 3 mps 734 mmHg 37%
    18:00 +29°C° 0 mm 2 mps 734 mmHg 43%
    19:00 +27°C° 0 mm 2 mps 734 mmHg 49%
    20:00 +24°C° 0 mm 1 mps 734 mmHg 56%
    21:00 +24°C° 0 mm 1 mps 734 mmHg 56%
    22:00 +23°C° 0 mm 1 mps 734 mmHg 57%
    23:00 +22°C° 0 mm 1 mps 734 mmHg 58%

    22 July, Monday

    Time Temperature Precipitation Wind Pressure Humidity
    00:00 +22°C° 0 mm 1 mps 734 mmHg 58%
    01:00 +20°C° 0 mm 0 mps 734 mmHg 57%
    02:00 +19°C° 0 mm 0 mps 734 mmHg 56%
    03:00 +19°C° 0 mm 0 mps 734 mmHg 58%
    04:00 +19°C° 0 mm 0 mps 733 mmHg 59%
    05:00 +19°C° 0 mm 0 mps 733 mmHg 60%
    06:00 +21°C° 0 mm 0 mps 734 mmHg 56%
    07:00 +25°C° 0 mm 1 mps 734 mmHg 53%
    08:00 +27°C° 0 mm 1 mps 734 mmHg 49%
    09:00 +29°C° 0 mm 1 mps 734 mmHg 46%
    10:00 +31°C° 0 mm 1 mps 734 mmHg 42%
    11:00 +32°C° 0 mm 1 mps 734 mmHg 39%
    12:00 +32°C° 0 mm 1 mps 734 mmHg 39%
    13:00 +33°C° 0 mm 1 mps 733 mmHg 39%
    14:00 +34°C° 0 mm 2 mps 733 mmHg 39%
    15:00 +34°C° 0 mm 2 mps 733 mmHg 40%
    16:00 +32°C° 0 mm 2 mps 732 mmHg 41%
    17:00 +32°C° 0 mm 2 mps 732 mmHg 42%
    18:00 +30°C° 0 mm 1 mps 732 mmHg 45%
    19:00 +28°C° 0 mm 1 mps 732 mmHg 48%
    20:00 +26°C° 0 mm 1 mps 732 mmHg 52%
    21:00 +26°C° 0 mm 1 mps 732 mmHg 52%
    22:00 +25°C° 0 mm 1 mps 732 mmHg 53%
    23:00 +24°C° 0 mm 1 mps 732 mmHg 54%
    Show more